Theta_e
289 289 289 289 289 289 289 289 289 289 289 289 289 289 289 289 289 289 289 289 289 289 289 289 289 289 289 289 289 289 289 289 289 289 289 289 289 289 289 288 288 288 288 288 288 288 287 287 287 287 287 286 287 287 288 289 291 292 293 294 294 294 294 295 295 295 296 296 296 297 296 296 296 295 295 295 295 296 296 296 296 296 296 296 296
289 289 289 289 289 290 290 290 290 289 289 289 289 289 289 289 289 289 289 289 289 289 289 289 289 289 289 289 289 289 289 289 289 289 289 288 288 288 288 288 288 288 288 288 288 288 288 288 288 288 287 287 287 286 286 287 287 288 289 291 292 293 293 293 293 294 295 295 296 296 296 296 296 296 296 296 295 295 295 296 296 296 296 296 296
290 290 290 290 290 290 290 290 290 290 290 290 289 289 289 289 289 289 289 289 288 288 288 288 288 288 288 288 288 287 287 287 287 287 287 287 287 287 287 287 287 287 287 287 287 287 288 288 288 288 288 288 287 287 287 286 286 286 286 287 288 290 291 292 292 292 293 294 294 295 296 296 296 296 296 296 296 295 295 295 295 295 296 296 296
290 290 290 290 290 289 289 289 289 289 289 289 289 289 289 289 289 289 288 288 288 288 288 287 287 287 287 286 286 286 286 286 286 286 286 286 286 286 286 286 286 286 286 286 286 286 287 287 287 288 287 287 288 288 287 287 287 286 286 286 286 286 288 289 291 292 292 292 293 293 294 295 295 296 295 295 296 295 295 295 295 295 295 295 295
290 290 290 289 289 289 289 289 289 289 289 289 289 289 289 289 289 289 288 288 287 287 287 287 286 286 286 286 286 286 285 285 285 285 285 285 285 285 285 285 286 286 286 286 286 286 286 286 287 287 287 287 287 287 287 287 287 287 287 286 286 286 286 286 287 289 290 291 292 293 293 293 294 295 295 295 295 295 295 295 295 295 295 295 295
290 290 290 289 289 289 289 289 289 289 289 289 289 289 289 289 289 289 288 287 287 287 286 286 286 286 286 285 285 285 285 285 285 285 285 285 285 285 285 285 285 285 286 286 286 286 286 286 286 286 286 286 286 287 287 287 287 287 287 287 286 286 286 286 286 286 286 288 290 291 292 292 293 294 294 294 294 295 295 295 295 295 295 295 295
290 290 290 290 290 289 289 289 289 289 289 289 289 289 289 289 289 289 288 287 287 286 286 286 285 285 285 285 285 285 285 284 284 284 284 284 284 284 284 284 285 285 285 285 286 286 286 285 285 286 285 285 285 286 286 286 286 286 287 287 287 287 286 286 286 286 285 285 286 287 289 290 292 293 294 293 293 293 294 294 295 295 295 295 295
291 290 290 290 290 290 290 290 290 289 289 289 289 289 289 289 289 288 287 287 286 286 285 285 285 284 284 284 284 284 284 284 284 284 284 284 284 284 284 284 284 285 285 285 285 285 285 285 285 285 285 285 285 285 285 285 285 285 286 286 286 287 287 286 286 286 286 286 285 285 286 287 288 290 292 293 293 294 294 293 294 295 295 295 295
291 290 290 290 290 289 289 289 289 289 289 289 289 289 289 289 288 288 287 286 286 285 285 284 284 284 284 284 284 284 284 284 284 284 283 283 283 283 283 283 283 284 284 284 285 285 284 284 284 284 284 284 284 284 283 283 283 284 284 285 284 285 286 286 286 286 286 286 286 286 285 285 285 286 288 290 292 294 294 292 293 294 294 294 295
290 290 289 289 289 289 288 288 288 288 288 288 288 288 288 288 287 287 286 285 285 284 284 283 283 283 283 284 284 284 284 284 284 283 283 282 282 282 282 282 282 282 283 283 284 284 284 283 283 283 283 283 283 283 283 282 282 282 283 283 283 283 284 284 285 286 286 286 286 286 285 285 285 285 285 287 289 291 292 292 292 293 293 292 294
289 289 288 288 288 288 288 288 288 288 287 287 287 287 287 287 286 285 285 284 284 283 283 283 283 283 284 284 284 284 284 284 283 283 282 281 281 280 280 281 281 281 281 281 281 282 282 282 281 281 281 281 281 282 282 282 282 281 281 282 282 282 283 283 283 284 285 285 286 286 286 285 286 285 285 285 286 288 290 291 292 292 292 291 293
288 288 288 288 288 288 288 288 287 287 287 287 286 286 286 285 285 284 284 283 283 283 283 283 283 284 284 284 284 284 284 283 283 282 281 281 280 278 278 279 279 279 279 279 278 279 279 279 279 279 279 279 279 279 280 280 281 281 281 281 281 281 282 283 283 283 283 284 285 285 286 286 286 286 285 285 285 285 286 289 291 291 291 291 292
288 288 288 288 287 287 287 287 287 287 286 285 285 285 284 284 284 283 283 283 283 283 283 283 284 284 284 284 284 284 283 283 282 281 280 279 278 277 277 277 277 277 277 277 276 276 276 277 277 277 277 278 277 277 278 278 279 279 279 280 280 281 281 281 282 282 282 283 283 284 285 286 286 286 286 285 285 285 285 286 288 290 291 291 292
288 288 288 287 287 287 287 287 286 286 285 284 284 284 283 283 283 283 283 283 283 283 283 283 283 283 283 283 283 283 282 282 280 279 278 277 276 275 275 276 276 275 275 275 274 275 275 274 275 275 275 276 275 276 276 276 277 277 278 279 279 280 280 280 281 281 282 282 282 283 284 285 285 286 286 285 285 285 285 285 285 287 289 290 291
288 287 287 287 287 287 286 286 285 284 284 283 283 283 283 283 282 282 283 283 283 283 283 283 283 283 282 282 282 282 281 280 279 278 277 276 275 274 274 274 274 274 274 273 273 273 273 273 273 273 274 274 274 274 274 275 275 276 276 277 278 279 279 280 280 280 280 281 281 281 282 283 284 285 286 285 285 285 285 285 284 286 287 289 290
287 287 287 287 286 286 285 285 284 283 283 283 283 283 282 282 282 282 282 283 283 282 282 282 282 282 281 281 281 281 280 279 278 277 276 275 274 274 273 273 273 273 272 272 271 272 271 271 272 272 272 273 273 273 274 274 275 275 275 276 276 276 278 279 279 279 280 280 281 281 282 282 283 283 284 284 285 284 284 285 285 286 287 288 289
287 287 286 286 286 285 284 284 283 283 283 283 282 282 282 282 282 282 282 282 282 282 282 282 281 281 280 280 279 279 279 277 276 275 274 274 273 273 272 272 272 271 271 270 270 269 269 269 269 270 271 271 272 272 273 274 274 274 274 274 275 275 276 277 278 278 279 280 281 281 282 283 283 283 283 283 283 284 284 285 285 286 287 288 288
287 286 286 286 285 284 283 283 282 282 282 282 282 282 282 282 282 282 282 282 282 282 281 281 280 280 279 279 278 277 277 276 274 274 273 273 272 272 271 271 270 270 270 269 269 268 268 268 269 269 270 270 271 272 273 274 274 274 274 275 275 275 275 276 276 276 277 278 278 280 281 282 283 283 283 283 282 283 285 285 285 285 286 287 287
286 286 285 285 284 283 283 282 282 282 282 281 281 281 281 281 281 281 281 281 281 281 280 280 280 279 278 278 276 276 276 275 274 273 273 272 272 271 270 270 269 269 269 269 269 269 269 269 269 269 270 270 271 272 273 273 274 274 274 275 275 275 276 276 276 276 277 277 277 278 279 280 281 282 282 282 282 283 284 285 285 286 286 286 286
286 285 285 285 284 282 282 281 281 281 281 281 281 281 281 281 281 281 281 280 280 280 279 279 279 278 277 276 276 275 275 274 274 273 272 272 271 270 270 269 269 269 269 268 269 269 269 269 269 270 270 271 271 272 272 273 273 273 273 274 274 274 275 275 276 276 277 278 278 278 278 279 279 280 281 282 282 282 282 283 284 285 286 286 285
285 285 285 284 282 281 281 281 280 280 280 280 281 281 280 280 280 280 280 280 279 279 278 278 278 277 276 276 275 275 274 274 274 273 272 272 271 271 269 268 268 268 269 269 269 269 269 270 270 270 271 271 271 272 272 273 273 273 273 273 273 274 275 275 275 276 276 277 277 278 278 279 279 280 280 281 281 282 282 282 283 284 285 286 285
285 285 284 283 281 281 280 280 280 280 280 280 280 280 280 280 280 280 279 279 278 278 277 277 277 276 276 275 275 274 274 274 274 273 273 272 272 271 269 268 269 269 270 270 270 270 270 270 271 271 272 271 272 272 273 273 274 274 274 274 275 275 275 276 276 275 276 276 276 277 277 278 279 280 281 281 281 281 282 282 282 283 284 285 285
285 284 283 282 281 280 280 279 279 279 279 280 280 280 279 279 279 279 278 278 278 277 277 276 276 276 276 275 275 275 275 275 274 274 273 272 272 271 270 270 270 270 270 270 270 271 271 271 272 272 272 272 273 273 274 274 274 275 275 275 275 275 275 275 275 275 275 275 275 275 276 277 278 279 280 281 281 282 282 282 282 282 283 284 284
285 283 282 281 280 280 279 279 279 279 279 279 279 279 279 279 279 278 278 277 277 276 276 276 275 275 275 275 275 275 275 275 275 274 273 273 272 271 271 271 271 271 271 271 271 272 272 272 273 273 273 273 274 274 274 274 274 274 274 274 274 274 274 274 274 274 274 274 274 274 274 275 276 277 278 279 281 282 282 283 283 283 283 284 284
284 283 281 281 280 280 279 279 279 279 279 279 279 279 279 279 279 278 277 276 276 276 276 275 275 275 275 275 276 275 274 274 274 274 273 272 272 272 272 272 272 272 272 272 272 272 273 273 273 274 274 274 274 274 273 273 273 273 273 274 274 274 273 273 273 273 273 273 273 273 273 274 275 276 277 278 280 281 283 283 283 283 283 284 284
283 282 281 280 280 279 279 279 278 278 278 278 278 278 278 278 278 278 277 276 276 275 275 275 275 275 275 275 274 272 271 271 272 272 271 271 272 272 272 272 272 273 273 273 273 273 273 274 274 274 274 273 273 273 273 273 273 273 273 273 273 273 273 273 273 273 273 273 273 273 273 273 274 274 276 277 279 280 282 283 283 283 283 284 284
282 281 280 280 279 279 279 279 278 278 278 278 278 278 278 278 278 277 276 276 275 275 275 275 275 275 275 274 272 269 268 269 270 271 270 270 271 271 272 272 272 273 273 273 274 274 274 274 274 274 273 273 273 273 273 273 273 273 274 274 274 273 274 273 273 273 273 273 273 273 273 273 273 274 274 276 277 279 281 282 283 284 284 284 284
282 280 280 279 279 278 278 278 278 278 278 278 278 278 278 278 277 277 276 275 275 275 275 275 275 275 273 272 270 268 268 269 270 270 270 270 271 271 271 272 273 273 273 274 274 274 274 274 274 274 274 273 273 273 273 273 273 273 274 274 274 274 274 274 273 273 273 273 273 273 273 273 273 274 274 275 276 278 279 281 283 284 284 284 284
281 280 279 279 278 278 278 278 278 278 278 278 278 278 277 277 277 277 276 275 275 275 274 274 274 273 271 270 269 268 268 269 270 270 270 270 271 271 272 272 273 274 274 274 274 274 274 274 274 274 274 273 273 273 273 273 273 273 274 274 274 274 273 273 273 273 273 273 273 273 273 273 273 274 275 275 276 277 279 281 283 284 284 284 284
280 279 279 278 278 278 277 277 277 277 277 277 277 278 277 277 276 276 276 275 275 275 273 273 273 272 270 270 269 269 269 269 269 269 270 271 271 271 272 273 274 274 274 274 274 274 274 274 274 274 274 273 273 273 273 273 273 274 274 274 274 273 272 272 272 272 272 273 273 273 273 273 274 274 275 276 277 277 278 280 283 284 284 284 284
279 279 278 278 278 277 277 277 277 277 276 277 277 277 278 277 277 276 275 275 275 275 274 273 273 273 272 271 271 271 271 270 269 269 269 270 270 271 271 272 272 273 273 273 273 273 274 274 274 274 273 273 273 273 274 274 274 274 274 274 273 272 272 271 272 272 272 273 273 273 273 273 274 274 275 276 277 278 279 281 283 284 284 284 284
279 278 278 277 277 277 277 276 276 276 276 276 276 276 277 277 277 277 276 276 275 275 274 274 274 274 274 272 271 271 271 271 270 269 269 269 270 271 272 272 273 273 272 272 272 273 273 273 273 273 273 273 274 274 274 274 274 274 273 273 273 273 273 273 273 273 273 273 273 273 273 273 274 274 275 276 277 278 279 282 284 284 284 284 284
278 277 277 277 277 276 276 276 275 275 275 275 276 276 275 276 276 277 277 277 276 275 274 274 274 274 274 274 273 271 271 271 270 269 269 271 272 272 273 274 274 273 272 273 273 273 273 273 273 273 273 273 274 274 274 274 274 274 273 274 274 275 275 274 274 274 274 274 274 273 273 274 274 275 276 277 277 278 280 282 284 284 284 283 284
277 277 276 276 276 276 275 275 275 275 275 275 275 275 275 275 275 275 276 277 277 277 276 275 274 273 273 274 273 272 273 272 270 270 271 272 272 273 274 274 274 273 272 272 272 272 272 273 273 273 273 273 274 274 274 274 274 274 275 275 276 276 275 275 274 274 274 274 274 274 274 275 275 276 277 277 278 279 281 283 283 284 283 283 283
276 276 276 276 275 275 274 274 274 274 274 274 274 274 274 274 274 274 274 274 275 276 277 277 276 274 274 274 273 273 273 272 271 271 272 272 272 273 274 274 274 274 273 272 272 271 271 271 271 272 272 273 273 273 273 273 274 275 275 275 276 276 275 275 275 275 275 275 275 275 275 276 276 277 277 278 278 279 281 283 283 283 283 283 283
276 276 275 275 274 274 274 273 273 273 274 274 274 274 274 273 273 273 273 273 274 274 275 276 276 275 274 274 274 273 273 273 272 271 272 272 272 273 273 273 273 273 273 272 272 271 270 270 270 271 271 272 272 272 272 273 274 274 274 275 275 276 276 276 276 276 276 276 276 276 276 277 277 278 278 279 279 280 280 282 283 283 283 283 283
275 275 274 274 273 273 273 272 272 273 273 274 273 273 273 273 273 273 273 273 273 273 273 274 274 274 274 274 273 273 273 273 271 271 271 272 272 272 272 272 271 271 271 271 271 271 270 270 269 270 271 271 272 272 272 272 272 273 274 275 276 276 276 276 276 276 276 276 276 277 277 278 278 278 279 279 280 280 280 281 281 282 282 282 282
275 274 274 273 273 272 272 272 272 272 273 273 273 273 273 272 272 272 272 273 273 273 272 272 273 273 273 273 273 273 273 272 272 272 272 272 272 272 272 271 271 271 271 270 270 270 270 270 269 269 270 270 271 271 271 271 272 273 274 275 276 276 276 276 276 276 276 276 277 277 277 278 278 279 279 280 280 280 280 280 281 281 281 281 282
274 273 273 272 272 272 271 271 271 272 272 272 272 272 272 272 272 272 272 272 272 272 272 272 272 271 271 272 272 272 272 271 271 272 272 271 271 271 271 271 271 270 270 270 270 270 269 269 269 269 269 270 270 270 270 271 272 273 273 274 275 276 276 276 277 276 276 276 277 277 277 278 279 279 280 280 280 280 280 280 280 281 281 281 281
273 273 272 272 271 271 271 271 271 271 272 272 272 272 272 271 271 272 272 272 272 272 271 271 271 271 270 270 270 270 270 270 270 271 271 271 271 271 270 270 270 270 270 270 270 269 269 269 269 269 269 269 269 269 270 271 271 272 273 273 274 275 275 276 276 277 277 277 277 277 277 278 279 280 280 280 280 280 280 280 280 280 280 281 281
272 272 271 271 270 270 270 270 270 271 271 271 271 271 271 271 271 271 271 271 271 271 271 271 270 270 270 270 270 269 269 270 270 270 270 270 270 270 270 270 270 270 269 269 269 269 270 269 269 269 269 268 268 268 269 270 271 272 272 273 273 274 275 275 275 276 276 277 277 277 278 278 278 279 279 280 280 280 280 280 280 280 280 280 281
272 271 271 270 270 270 270 270 270 270 271 271 271 271 271 271 271 271 271 271 271 271 271 270 270 270 270 270 270 269 269 270 270 270 270 270 270 270 270 270 270 270 269 269 269 270 270 270 270 270 269 269 268 268 268 269 270 271 271 272 273 273 274 274 275 275 276 276 276 277 277 277 278 278 278 279 279 280 280 280 280 280 280 280 281
271 270 270 269 269 269 269 269 270 270 270 270 271 271 271 271 271 270 270 270 270 270 270 270 270 270 270 270 270 270 270 270 269 270 270 270 270 270 270 270 270 270 270 270 270 270 270 270 270 270 270 269 269 269 268 268 269 270 271 271 272 272 273 273 274 274 275 275 275 276 276 276 277 277 278 278 279 279 279 279 279 280 280 280 280
270 270 269 269 269 269 269 269 269 269 270 270 270 270 270 270 270 270 270 270 270 270 270 270 270 270 270 270 270 270 270 269 269 269 269 269 269 269 270 270 270 270 270 270 270 270 270 270 271 271 271 270 270 270 269 269 269 269 270 270 271 271 272 272 273 273 273 274 274 275 275 275 275 276 276 277 277 278 278 278 278 279 279 279 279
269 269 268 268 268 268 268 269 269 269 269 269 269 270 270 270 270 270 270 270 269 269 269 269 269 270 270 270 270 270 269 269 269 269 269 269 269 269 269 269 269 269 270 270 270 270 270 270 271 271 271 271 271 271 271 270 270 270 270 270 270 271 271 271 272 272 273 273 274 274 274 274 274 275 275 275 276 276 277 277 277 277 277 277 277
268 268 268 268 268 268 268 268 268 268 268 268 269 269 269 270 270 270 269 269 269 269 269 269 269 269 269 269 269 269 269 269 269 269 269 269 269 269 269 269 269 269 269 269 270 270 270 270 270 271 271 271 271 271 271 271 271 271 270 270 270 271 271 271 271 272 272 273 273 273 273 273 274 274 274 274 274 275 275 276 276 276 276 276 276
267 267 268 268 268 268 268 268 268 268 268 268 268 268 269 269 269 269 269 269 269 269 269 269 269 269 269 269 269 269 269 269 269 269 269 269 269 269 269 269 269 269 269 269 269 269 270 270 270 270 270 271 271 271 271 272 271 271 271 271 271 271 271 271 272 272 272 272 272 272 273 273 273 273 273 273 274 274 274 274 275 275 275 275 275
267 267 267 267 267 267 268 268 268 268 267 267 268 268 268 268 269 269 269 269 269 269 269 269 269 269 269 269 269 269 269 269 269 269 269 269 269 269 269 269 269 269 269 269 269 269 269 269 269 269 270 270 271 271 271 271 271 271 272 272 271 271 271 271 272 272 272 272 272 272 272 272 273 273 273 273 273 273 273 274 274 273 273 274 274
267 267 267 267 267 267 267 267 267 267 267 267 267 267 267 267 268 268 268 268 269 269 269 269 268 269 269 269 269 269 269 269 269 269 269 269 269 269 269 269 269 269 269 269 269 269 269 269 269 269 269 270 270 270 271 271 271 271 271 271 271 272 272 272 272 272 272 271 271 271 272 272 272 272 272 272 272 272 272 273 273 272 273 273 272
266 267 267 267 267 267 267 267 267 267 267 267 267 267 267 267 267 267 267 268 268 268 268 268 268 268 268 268 268 269 269 269 269 269 269 269 269 269 269 269 269 269 269 269 269 269 269 269 269 269 269 269 269 270 270 270 270 270 271 271 271 272 272 272 272 272 272 272 271 271 271 271 272 272 272 272 272 272 272 272 272 272 272 272 272
266 266 267 267 267 267 267 267 267 267 267 267 267 267 267 267 267 267 267 267 267 267 267 268 268 268 268 268 268 268 268 268 269 269 269 269 269 269 269 269 269 269 269 269 269 269 269 269 269 269 269 269 269 269 270 270 270 270 270 271 271 271 272 272 272 272 272 272 272 272 271 271 271 271 271 271 271 271 271 271 271 271 271 271 271
Wind_Speed
5 6 7 8 9 10 11 11 12 13 14 15 16 17 19 20 21 22 23 23 24 24 24 24 25 25 25 26 27 28 29 29 30 31 32 32 32 31 31 31 31 31 31 31 30 31 32 32 31 29 28 28 27 26 25 24 26 27 28 30 33 33 34 36 42 50 53 49 49 50 47 45 45 44 43 42 41 40 41 42 41 40 40 40 39
6 7 8 9 10 11 12 13 14 15 16 17 19 20 22 23 24 25 25 26 27 27 27 27 27 28 27 28 28 28 29 29 30 31 32 33 33 33 33 33 33 33 33 33 32 32 32 33 34 33 32 32 32 30 29 27 26 28 27 28 30 31 31 34 39 45 50 49 47 48 48 46 48 48 45 44 44 42 43 44 43 43 42 41 41
8 9 10 11 12 13 14 15 15 16 17 18 20 22 24 25 26 27 27 27 28 28 28 29 29 29 29 29 29 29 29 30 30 31 32 33 34 34 35 35 36 36 36 36 35 35 35 35 35 34 34 35 36 35 33 32 30 30 30 29 30 30 30 31 36 41 46 47 45 45 46 45 47 48 46 45 44 43 44 45 45 45 44 43 43
10 11 12 13 14 15 16 17 18 19 21 22 24 26 27 28 29 31 31 31 30 29 29 29 29 30 30 31 31 31 32 32 32 33 34 36 37 37 37 38 38 38 39 39 39 38 38 39 38 37 36 36 37 37 36 35 35 34 33 32 31 31 31 31 34 37 41 45 44 43 43 43 45 45 44 45 45 44 44 45 45 46 46 45 44
10 12 13 14 16 17 19 20 21 23 25 27 28 30 31 33 34 35 36 36 35 34 33 32 32 33 34 35 36 36 37 38 38 39 39 40 41 42 42 42 42 42 42 42 42 42 42 42 41 41 40 40 40 39 37 36 37 37 37 36 34 33 34 33 34 36 38 43 44 42 41 42 43 43 42 43 44 45 45 45 45 45 46 47 47
12 13 15 16 18 20 21 23 24 26 28 29 31 32 33 35 36 37 38 37 36 36 35 35 36 37 38 39 40 41 42 43 45 45 46 46 47 47 47 47 47 47 47 47 47 47 47 46 45 44 44 44 44 43 41 39 38 38 38 39 38 37 36 36 36 37 38 41 43 43 42 41 41 41 41 40 41 43 44 45 45 44 45 47 48
13 15 17 19 21 23 24 26 28 29 31 32 33 34 35 36 37 38 38 37 36 35 35 36 38 39 41 42 44 45 46 48 48 49 49 49 49 50 50 51 51 51 51 51 51 51 51 51 50 50 48 47 47 46 46 44 42 41 39 39 40 39 40 39 38 38 39 41 43 43 42 41 41 41 39 37 38 41 42 43 45 45 45 46 48
16 17 19 21 23 25 26 28 30 31 33 34 35 36 36 37 38 39 39 38 36 36 38 39 40 42 43 45 46 47 48 49 49 49 49 50 50 50 51 52 53 54 54 54 54 54 54 53 53 53 53 52 51 49 48 47 46 46 44 41 39 40 41 42 41 41 41 42 43 44 43 43 42 41 39 37 38 40 40 40 44 46 46 46 47
18 19 21 23 25 26 27 29 30 31 33 34 35 36 37 38 39 40 39 37 37 39 41 43 44 45 45 46 47 47 47 47 47 48 48 49 49 50 51 52 53 54 55 56 57 56 55 55 54 54 53 53 53 51 50 48 46 46 47 45 42 41 41 42 42 43 43 44 45 45 45 45 44 42 41 40 39 39 38 38 42 44 43 44 46
18 20 22 24 25 26 27 28 30 31 33 34 36 37 38 39 39 39 38 38 39 41 43 44 45 45 46 46 46 46 46 46 47 48 48 49 50 51 52 53 53 54 56 57 58 58 57 56 54 53 52 51 52 51 50 49 47 45 46 45 44 42 41 42 43 43 44 45 46 46 46 46 46 43 42 41 39 38 37 37 40 41 41 43 46
20 22 23 24 24 26 27 29 30 32 33 35 36 37 37 37 37 37 38 40 42 43 43 44 44 45 45 46 46 46 47 48 49 50 50 50 51 51 52 54 55 55 55 56 57 57 57 56 54 53 52 51 50 50 49 50 49 47 45 44 43 41 40 40 42 43 44 45 46 47 47 49 48 45 43 42 40 39 39 38 38 39 39 42 45
23 24 23 24 25 27 28 30 32 33 34 35 35 35 35 35 36 38 40 41 42 43 43 44 44 44 45 46 47 48 50 51 51 52 53 52 52 51 52 54 55 55 55 54 54 54 54 53 53 52 52 51 49 47 47 48 48 47 46 44 42 41 40 39 40 42 44 45 47 48 48 50 50 48 45 43 41 40 39 39 39 39 39 41 43
24 24 23 24 26 27 29 31 32 33 33 33 33 33 35 37 38 40 40 41 42 43 43 43 44 45 46 47 49 50 52 53 53 53 53 52 51 49 50 52 52 52 52 51 50 50 50 50 50 51 51 49 47 45 45 45 46 46 46 46 45 45 44 42 41 42 44 44 46 49 50 49 51 51 47 44 42 40 40 40 40 39 39 40 42
24 24 24 25 27 28 30 31 31 32 31 32 33 34 36 38 39 39 40 41 42 43 43 44 44 45 46 48 49 51 52 52 51 51 50 49 47 45 46 48 49 49 48 47 46 47 48 47 48 49 48 45 44 43 42 42 42 43 44 45 47 48 48 47 46 46 46 45 46 49 50 50 51 51 49 46 44 43 43 42 42 41 42 42 41
24 24 25 27 28 29 30 30 30 31 31 32 34 36 37 38 38 39 40 41 42 42 43 44 45 46 47 48 49 51 51 49 48 47 46 45 43 42 43 44 45 46 45 43 43 43 43 43 43 44 45 43 42 41 39 39 41 42 44 46 48 49 50 51 50 49 48 47 48 50 52 52 52 51 50 48 47 46 45 43 42 42 41 41 41
25 25 27 28 29 29 30 30 30 31 32 34 35 36 37 37 38 39 40 40 41 42 42 44 45 46 46 47 48 49 49 47 45 44 43 41 40 40 41 41 42 43 42 41 40 39 38 37 36 36 37 37 35 32 31 32 35 38 41 44 46 47 49 51 51 49 46 45 47 50 52 53 53 52 51 49 48 47 45 43 42 40 40 40 41
26 27 28 29 29 29 30 30 31 32 33 35 35 36 36 37 37 38 39 40 41 42 43 44 44 45 46 46 47 48 48 45 43 42 40 38 37 37 38 38 39 40 40 39 37 36 35 34 33 33 33 33 32 29 27 29 32 35 39 42 44 47 50 51 50 48 46 45 45 46 47 49 50 51 51 50 48 46 44 44 43 42 41 41 42
27 27 28 29 29 29 30 30 31 33 34 34 35 35 35 36 36 37 38 40 41 42 43 44 44 44 45 45 45 46 46 44 41 40 37 35 34 34 35 36 37 38 38 37 35 34 34 33 32 34 35 34 32 30 28 28 31 34 36 38 41 44 46 46 44 44 45 47 48 47 45 46 47 48 49 50 49 45 43 45 46 44 42 42 44
28 28 29 29 29 29 30 31 32 33 33 33 33 34 34 35 36 36 38 39 41 42 42 43 44 44 43 43 42 42 43 42 39 37 35 32 31 31 32 33 35 36 37 37 35 34 35 35 34 32 31 31 29 28 27 27 29 32 34 36 40 42 41 39 39 40 41 43 44 45 46 47 47 48 49 49 49 46 44 45 46 45 45 45 45
29 29 29 29 29 30 31 32 32 32 32 32 32 33 33 34 35 36 38 39 40 41 41 42 43 43 42 41 40 39 40 40 37 34 32 30 28 28 29 31 34 36 36 36 37 38 38 39 36 31 28 29 30 30 30 29 30 32 33 36 40 42 40 38 38 38 40 41 41 41 43 46 47 49 50 50 49 49 47 46 46 47 47 48 47
29 29 30 29 29 30 31 31 31 30 30 31 32 32 32 33 35 36 37 39 40 40 40 40 42 42 40 39 38 36 35 36 35 32 29 28 26 25 27 30 33 35 37 37 38 39 38 37 36 33 32 32 32 31 31 30 30 32 34 35 38 39 38 39 40 40 41 43 43 42 42 43 45 48 50 51 52 51 50 49 49 48 49 50 50
30 30 30 30 30 31 31 30 30 29 29 30 31 31 31 33 35 35 36 38 39 39 39 39 40 41 39 37 35 34 32 32 32 30 29 28 27 25 26 29 31 33 35 36 36 36 37 37 36 35 34 33 32 32 32 32 32 33 33 34 35 36 36 38 40 40 41 43 44 45 45 44 44 45 47 49 51 52 52 52 51 51 51 51 51
30 30 30 30 30 31 30 29 28 28 28 29 30 31 31 32 34 34 35 36 37 38 37 37 38 39 39 37 34 31 30 29 29 29 29 29 28 25 24 26 27 29 32 34 35 36 37 37 37 35 34 34 34 33 33 33 33 33 33 33 34 35 36 39 41 42 42 43 44 46 48 48 47 47 47 48 49 49 51 51 51 51 51 50 50
30 30 30 30 31 31 30 28 28 28 28 28 30 30 31 32 33 33 33 34 36 36 36 35 36 37 38 38 35 31 28 27 27 29 30 31 28 25 23 23 25 27 30 34 36 37 38 38 37 35 34 35 34 34 33 33 33 33 33 33 34 35 36 38 40 42 43 44 44 45 47 48 48 48 48 48 47 48 49 48 49 49 49 48 48
30 30 30 31 31 30 29 28 27 27 27 28 29 29 30 32 32 32 32 32 34 34 34 33 34 35 37 38 38 35 32 32 32 32 33 32 28 24 24 25 27 29 32 35 37 38 38 37 35 34 34 34 34 34 34 34 34 34 33 33 33 34 36 38 40 41 43 45 46 47 48 48 47 48 48 45 44 46 48 47 46 47 47 45 45
30 30 30 31 31 30 30 28 26 26 26 26 28 28 30 31 32 32 31 31 32 32 32 32 33 35 36 37 37 37 36 36 37 37 36 34 31 29 30 32 33 33 35 36 37 37 36 35 34 34 34 34 34 34 35 36 36 35 34 34 34 36 37 39 40 42 44 46 46 47 49 48 47 48 49 47 45 45 46 48 46 46 46 45 44
30 30 30 31 30 30 29 28 27 26 26 26 27 27 28 30 32 31 30 30 31 31 31 32 33 34 35 35 36 37 38 38 38 37 36 36 36 36 37 39 39 38 39 39 38 37 38 37 36 35 36 36 35 36 38 39 38 37 37 37 38 39 40 40 41 42 44 46 46 47 48 48 47 46 47 49 49 46 44 46 47 46 45 45 43
30 30 30 30 30 29 28 28 27 27 27 27 27 27 27 29 30 29 28 29 31 31 31 31 32 32 33 35 36 37 38 37 37 36 36 36 37 38 39 40 39 39 39 40 40 40 39 38 37 37 38 39 39 40 41 42 40 40 41 42 43 44 43 42 42 42 43 45 47 48 48 47 47 45 45 47 51 49 44 44 48 47 45 43 42
30 30 30 30 29 29 28 27 26 27 27 27 27 27 26 28 30 29 27 26 28 30 30 30 29 28 29 31 33 35 37 36 35 34 34 35 35 36 36 36 35 35 36 36 37 39 38 37 37 39 40 40 41 42 43 43 43 44 44 44 45 45 43 42 42 42 43 44 45 47 47 46 46 44 43 44 48 49 44 43 46 47 44 43 43
29 29 29 29 29 28 27 26 26 26 27 28 29 27 24 24 26 29 28 25 23 24 25 25 23 23 25 26 28 29 32 33 32 32 33 33 33 33 33 31 31 32 33 33 34 35 36 36 37 39 40 41 43 44 45 44 43 44 44 44 44 43 43 43 43 43 44 44 44 44 44 44 43 42 41 41 44 45 44 43 46 46 44 43 42
29 29 29 28 28 27 27 26 26 26 27 28 29 29 27 23 21 23 26 25 23 21 20 20 20 20 22 24 25 25 27 28 28 29 30 31 31 31 31 31 31 32 31 30 32 35 36 37 39 40 41 41 41 41 40 39 39 41 42 42 42 42 42 42 42 42 42 42 42 42 42 41 41 41 39 39 40 42 42 43 45 46 43 42 42
28 28 28 28 27 26 26 26 26 26 27 27 27 29 30 28 24 21 21 22 22 21 18 17 18 19 20 22 23 24 25 26 25 26 28 29 30 30 30 31 32 32 30 30 31 33 34 34 35 35 35 34 33 32 33 34 36 38 39 40 40 38 37 38 38 38 39 40 40 40 38 37 36 36 36 35 36 39 41 40 43 44 41 40 40
27 27 27 27 26 25 25 25 26 26 26 27 27 26 27 28 28 25 22 19 18 18 17 17 18 19 20 22 23 24 24 24 24 26 29 30 31 31 31 31 30 30 29 28 28 28 28 28 28 29 28 28 28 29 30 32 34 35 35 36 36 35 34 33 33 34 35 36 35 34 33 31 30 31 33 33 34 37 39 37 39 38 38 38 38
26 26 26 26 26 25 24 24 25 25 25 25 25 25 25 25 25 26 25 22 19 16 15 17 19 21 22 23 23 24 24 24 25 28 30 30 30 31 31 30 27 25 23 23 23 23 23 23 24 24 25 25 26 27 29 31 33 34 34 34 33 32 32 32 31 31 31 29 28 27 26 25 26 28 30 31 31 33 34 36 39 37 36 37 37
26 25 26 26 25 25 24 24 25 25 25 24 24 23 23 22 22 22 23 22 20 18 17 17 18 20 23 23 24 24 25 25 26 28 29 29 29 29 29 28 26 23 21 20 21 21 20 21 21 22 23 23 24 26 28 30 32 33 34 34 32 31 31 31 30 29 27 25 24 23 21 22 24 27 29 30 30 30 28 31 38 39 37 36 35
25 25 25 25 25 24 24 24 24 24 24 23 22 22 21 20 20 20 20 20 19 18 18 18 18 20 21 21 22 23 23 24 26 27 27 27 27 28 28 28 27 25 24 22 22 21 20 20 21 21 22 23 24 25 27 29 31 31 32 32 31 31 30 29 29 29 27 26 25 24 22 23 25 27 28 28 28 28 25 22 26 30 32 33 32
25 25 24 24 24 23 23 23 23 23 23 22 21 20 20 19 18 18 19 19 18 17 18 19 20 22 22 21 22 22 21 22 24 25 25 25 26 27 28 29 28 28 26 25 24 23 22 22 21 22 22 23 24 26 27 29 30 30 29 28 28 27 28 27 27 28 29 29 28 27 27 27 27 26 26 26 25 26 25 23 21 22 24 26 28
24 24 24 23 23 22 22 22 22 21 21 21 20 19 18 18 18 18 18 17 17 17 18 18 20 22 23 23 23 23 22 21 22 23 24 26 27 28 28 29 29 29 28 27 26 25 24 23 23 23 23 23 24 25 26 27 28 28 28 27 26 25 25 25 26 27 28 29 30 29 29 28 27 24 23 22 23 23 23 23 24 24 24 25 26
23 23 23 23 22 22 22 21 21 20 20 19 18 18 17 17 17 17 17 17 17 17 17 17 18 19 20 22 23 24 23 23 24 25 26 26 27 27 28 28 29 30 30 29 28 27 26 24 24 23 23 23 24 24 24 25 26 27 27 27 26 24 23 23 24 24 24 25 26 27 27 26 23 20 19 21 22 22 22 23 24 24 25 27 28
22 22 21 21 22 22 21 21 20 20 19 18 18 17 17 17 17 17 17 17 17 16 16 16 16 16 17 19 21 22 23 23 23 24 25 25 26 26 27 27 28 29 30 30 29 28 27 25 24 24 23 24 24 25 24 24 24 25 25 25 25 24 23 22 21 21 20 20 21 21 22 22 20 18 18 20 22 24 25 25 24 24 24 25 28
21 20 20 21 21 21 20 20 20 19 18 17 17 17 17 17 17 17 17 17 17 16 15 14 14 14 15 16 17 18 19 20 21 21 22 23 24 25 25 26 27 27 28 29 30 29 28 26 25 24 24 24 25 26 25 25 24 24 24 24 24 23 22 22 21 20 19 18 17 16 16 17 18 18 18 18 19 21 24 25 23 23 23 24 26
20 19 19 20 20 20 19 19 19 18 17 17 17 17 17 17 17 16 16 16 16 16 15 13 12 12 13 13 14 15 16 18 19 20 20 21 22 23 24 24 25 25 26 27 28 28 28 27 26 24 24 24 25 26 27 26 26 24 24 24 23 23 23 22 21 20 19 17 16 15 13 13 13 14 15 16 15 16 19 22 22 22 23 25 25
19 19 19 19 19 18 18 18 17 17 16 16 16 16 17 17 16 16 16 15 15 15 14 13 12 11 11 12 12 13 14 16 17 18 19 20 20 21 22 23 23 24 24 24 25 26 27 27 26 25 24 23 23 24 26 26 26 25 25 24 23 22 22 21 20 19 18 17 16 14 13 12 12 11 11 11 10 10 12 17 21 22 23 24 24
18 18 19 18 18 17 17 17 16 16 15 15 15 16 16 16 15 15 15 14 14 14 14 13 12 11 11 11 12 13 14 15 16 17 18 19 19 20 21 22 22 23 23 24 24 25 26 26 26 26 25 24 24 23 23 24 25 25 25 24 23 22 22 21 20 19 18 17 16 14 13 13 13 12 12 11 9 8 7 8 13 16 18 19 20
18 18 18 17 17 16 16 16 16 15 15 15 15 15 15 15 15 14 14 13 13 12 12 12 12 12 12 12 12 13 14 15 16 17 17 18 19 20 20 21 22 22 23 23 24 25 26 27 27 26 26 26 25 25 24 24 24 24 24 23 23 22 22 21 20 18 17 16 15 14 14 14 13 13 12 11 10 9 6 4 4 7 10 12 14
17 17 17 16 16 15 15 15 15 14 14 14 14 14 14 14 14 14 13 13 12 12 12 12 12 12 12 12 13 13 14 15 16 16 17 18 19 19 20 20 21 22 23 23 24 24 25 26 27 27 27 26 26 26 26 25 25 25 25 24 23 21 20 19 18 17 16 15 14 14 14 14 13 13 12 11 9 8 6 4 2 2 3 6 8
16 16 16 16 15 15 15 15 14 14 14 14 14 14 14 14 14 13 13 13 13 12 12 12 12 12 12 12 13 14 14 15 16 16 17 18 18 19 20 20 20 21 21 22 23 23 24 25 26 27 27 27 26 26 26 26 26 26 26 25 25 23 21 19 17 16 16 16 16 15 14 14 13 12 11 10 9 7 6 4 3 1 1 3 5
16 15 15 15 15 15 14 14 14 14 13 14 14 14 14 14 13 13 13 13 13 13 13 13 13 13 13 13 14 14 14 15 16 16 17 17 18 18 19 19 20 20 21 21 22 22 23 24 25 26 26 27 27 27 27 27 27 27 26 26 26 25 23 20 19 17 17 17 17 16 15 14 13 12 11 10 9 8 6 4 3 2 1 3 5
15 14 14 14 14 14 14 14 14 13 14 14 14 14 14 14 14 13 13 13 13 14 14 14 14 14 14 15 14 15 15 15 16 16 17 17 18 18 18 19 19 19 20 20 21 21 22 22 23 24 25 26 26 26 26 27 27 27 26 26 25 24 23 22 22 20 19 19 18 17 16 15 13 13 12 11 10 9 7 6 5 4 3 5 6
14 13 13 13 14 14 14 13 13 13 14 14 14 15 15 14 14 14 14 14 14 14 15 15 15 16 16 16 16 16 16 16 16 17 17 17 18 18 18 18 19 19 19 20 20 21 21 22 22 22 23 24 25 25 25 25 26 26 26 25 24 23 23 23 23 22 21 20 19 18 16 15 15 14 14 13 11 10 9 8 7 6 5 6 6
13 13 12 13 13 13 13 12 12 13 13 14 14 14 14 14 14 15 15 15 15 16 16 16 16 17 17 17 17 17 17 17 17 17 18 18 18 19 19 19 19 19 19 19 19 20 20 21 21 22 22 23 23 23 23 23 24 24 23 23 23 23 22 22 22 22 22 21 20 19 17 17 16 16 15 14 13 12 11 10 9 8 7 7 6
Wind_Direction
20 11 5 2 357 354 352 350 347 343 340 337 333 331 328 326 324 322 322 321 320 318 317 316 315 313 311 310 310 310 310 311 313 313 314 314 315 315 315 314 312 312 311 309 308 308 307 306 305 305 307 305 303 302 301 300 298 294 289 284 279 275 272 271 272 274 274 274 274 274 274 275 274 273 272 271 268 266 265 264 263 261 259 258 257
355 349 344 342 339 337 335 333 331 328 328 327 326 324 323 322 322 320 320 320 319 318 317 316 315 313 313 312 311 311 311 311 311 311 311 311 311 311 312 312 311 310 309 307 306 305 303 301 301 301 302 300 299 300 299 298 298 296 295 292 288 283 278 275 274 276 277 277 276 275 275 275 274 273 273 273 271 269 266 264 263 262 261 259 258
343 340 337 333 331 329 327 324 323 322 322 322 322 321 320 320 320 320 320 319 318 318 316 315 314 313 313 313 312 312 311 311 311 310 310 310 308 308 308 308 308 307 306 305 304 303 301 299 298 298 298 296 295 295 296 296 296 295 294 294 293 290 287 282 279 279 280 280 279 278 277 276 275 275 275 274 272 271 268 265 263 262 261 260 259
339 336 334 332 329 327 324 322 322 321 321 322 322 321 320 320 321 322 322 321 319 317 316 315 315 314 314 314 313 313 312 311 310 309 308 307 306 305 304 303 303 302 301 301 300 299 298 297 296 296 295 293 292 291 292 292 292 292 292 292 292 292 291 289 285 283 284 284 282 280 279 278 277 277 276 275 273 271 269 267 265 262 261 260 260
329 329 328 327 324 321 319 318 319 319 319 320 320 320 320 320 320 321 322 321 320 318 317 316 316 316 316 315 314 314 313 312 311 309 307 306 305 303 302 301 300 298 297 296 296 295 294 293 293 293 292 291 290 289 289 288 287 287 287 288 289 290 290 290 288 287 286 286 285 284 283 280 279 277 276 276 275 274 271 269 266 264 262 260 259
319 320 319 317 315 314 313 313 313 314 314 314 314 314 315 315 316 317 317 317 316 315 315 316 316 316 315 315 314 313 312 311 310 309 308 306 305 303 301 299 298 296 295 293 293 292 291 290 289 288 288 288 287 287 287 285 284 283 283 284 285 286 286 286 287 288 287 287 287 288 286 284 282 280 278 277 276 275 274 272 268 265 262 260 259
307 308 308 308 308 308 309 309 309 309 308 308 308 308 308 308 309 310 311 311 310 311 312 312 313 313 312 312 311 310 310 309 308 308 307 306 305 303 301 299 297 296 294 292 291 290 289 289 288 287 286 285 284 284 285 284 283 281 279 280 281 282 283 283 284 285 286 286 287 287 288 287 286 284 283 281 277 275 273 272 270 268 265 262 260
296 298 299 301 302 303 303 303 303 303 302 302 302 303 303 303 303 305 307 308 308 309 309 309 309 309 308 308 307 307 307 306 306 306 305 305 304 303 301 300 298 297 295 293 291 290 288 287 286 286 285 285 284 283 283 282 282 282 279 277 276 277 278 280 280 280 281 283 284 285 287 287 286 285 285 283 279 276 275 274 273 273 270 267 264
287 291 294 296 297 297 297 297 297 297 297 298 298 298 298 299 300 302 304 305 306 307 307 307 306 306 306 305 305 305 305 305 305 305 304 304 303 301 300 298 297 295 294 293 292 291 289 288 286 284 284 283 284 284 283 282 282 281 280 279 278 275 273 274 276 276 277 278 279 282 284 285 285 285 285 283 282 283 282 278 275 275 274 272 269
288 293 296 296 296 295 295 295 295 294 294 294 295 295 296 297 299 301 302 303 304 305 304 304 304 305 305 305 305 305 305 304 304 304 303 303 301 299 297 295 294 293 292 291 290 289 289 288 287 285 283 282 281 281 282 282 282 281 279 279 279 278 275 273 272 272 273 275 275 277 280 281 281 283 284 284 284 284 283 280 278 278 276 274 271
293 298 299 298 298 297 297 296 295 294 294 293 293 294 296 297 299 300 302 303 303 303 303 304 305 306 306 306 306 306 306 306 305 304 303 302 301 299 297 295 293 291 290 289 288 287 287 286 286 285 284 283 281 280 280 280 280 281 281 279 278 277 276 274 271 270 270 271 271 272 274 276 277 280 282 283 284 283 282 281 280 279 276 272 272
296 300 301 301 300 299 298 297 296 295 294 294 295 296 297 299 300 301 302 303 303 304 305 306 307 308 308 308 308 308 308 307 307 306 305 303 302 301 298 296 293 291 289 288 287 286 286 286 285 284 283 283 282 282 280 278 277 277 278 278 277 274 271 269 268 269 269 270 269 269 269 271 273 275 278 281 282 282 282 280 278 277 275 272 272
298 300 301 302 301 301 299 297 297 296 295 296 296 298 300 301 302 303 304 305 306 307 308 309 310 310 310 310 310 309 309 309 308 308 307 305 305 304 301 298 295 293 291 289 288 287 286 286 286 285 284 285 284 283 281 280 279 276 275 274 273 273 271 268 265 265 266 268 268 266 265 266 268 269 272 277 280 280 280 278 276 275 273 271 273
297 299 301 302 302 301 300 298 297 296 296 297 298 300 302 303 304 305 307 308 309 310 311 311 311 312 312 312 311 311 310 310 310 310 309 308 307 305 302 299 297 295 294 292 290 288 287 287 287 286 286 286 285 284 283 282 281 279 276 273 271 270 271 270 268 266 264 264 264 265 263 263 265 266 268 271 275 276 277 278 277 276 274 275 278
298 300 302 304 304 302 301 299 297 296 297 299 301 303 304 306 307 309 309 310 311 311 312 312 313 313 313 313 313 312 311 312 312 311 310 310 309 306 303 300 298 297 296 295 294 292 291 291 290 289 289 288 287 286 285 284 282 280 278 276 274 272 271 270 269 270 269 267 265 265 264 263 263 264 265 267 270 271 274 277 277 276 274 274 275
299 301 303 305 304 303 301 299 297 298 300 302 304 306 307 309 310 310 311 311 312 312 313 313 314 314 315 315 314 313 313 314 314 313 311 311 310 307 304 302 300 299 299 299 299 299 299 299 297 297 296 296 296 295 292 288 286 284 282 280 279 277 274 271 269 269 271 270 269 269 268 266 265 263 263 264 266 268 270 272 273 269 266 265 266
301 303 304 304 304 302 300 299 299 301 304 305 307 308 309 310 311 311 311 312 313 314 314 315 316 316 316 317 316 315 316 317 316 314 313 313 311 308 305 303 301 300 300 301 302 303 304 303 302 300 297 296 297 298 295 292 288 285 283 282 282 280 278 276 274 272 270 269 269 269 269 268 267 266 265 263 263 266 267 265 264 261 256 255 257
301 303 304 305 303 301 300 300 302 304 306 307 308 309 310 311 312 312 313 313 314 315 316 316 317 317 318 319 319 318 317 317 317 314 314 314 311 308 306 304 302 301 302 302 302 303 302 303 303 303 301 299 299 298 297 295 292 290 290 290 289 287 286 286 285 283 279 274 270 269 269 269 268 266 265 263 261 261 261 259 259 257 252 250 252
302 304 305 305 303 301 301 303 305 306 307 308 309 310 311 312 312 313 315 315 316 316 317 317 317 319 320 321 320 319 317 316 315 314 314 314 312 309 306 304 302 302 302 302 303 304 306 309 309 303 299 299 298 297 296 294 290 288 289 290 289 288 291 294 293 292 290 286 280 275 271 269 268 267 265 263 260 257 255 255 256 253 250 248 250
303 305 306 305 303 302 303 305 306 307 308 309 310 311 312 313 314 315 316 316 316 316 317 318 318 320 321 321 320 319 316 315 314 314 314 314 313 311 307 304 303 304 306 307 309 311 312 313 310 302 297 297 294 293 294 293 290 288 287 286 285 285 288 291 290 291 292 291 288 284 277 272 269 267 266 264 261 258 254 253 252 250 248 248 248
304 305 305 303 302 303 304 305 306 307 308 310 310 312 313 314 315 316 317 316 316 316 317 318 319 320 321 321 320 318 316 313 312 314 315 317 319 317 310 306 306 308 309 309 310 310 310 309 309 308 308 303 297 293 293 291 290 289 289 288 287 288 289 289 287 286 285 284 284 285 283 279 274 269 266 264 262 260 257 253 251 249 247 246 246
304 304 303 302 302 304 305 305 306 307 309 310 310 312 315 315 316 317 317 316 316 317 318 319 319 319 320 320 318 317 316 313 312 316 320 323 326 326 315 307 306 306 306 306 306 307 308 309 312 316 315 310 302 295 294 294 293 290 289 288 289 290 291 290 289 288 285 283 281 280 278 277 275 273 269 266 263 261 259 256 253 251 249 248 247
302 302 301 301 302 304 304 305 306 308 310 310 311 314 315 315 315 316 316 316 316 316 318 319 319 318 318 318 317 317 317 317 318 323 325 326 329 330 321 311 307 305 303 303 305 306 308 310 314 318 318 315 309 301 298 300 298 293 290 289 288 288 287 286 286 286 286 286 284 280 276 273 273 272 270 268 266 263 261 259 256 253 251 250 249
300 300 299 301 303 304 304 305 307 308 310 310 312 314 315 314 315 316 316 317 316 315 317 319 319 318 317 315 316 320 325 329 330 330 329 328 329 329 324 319 317 312 306 304 306 308 310 314 317 315 311 308 304 299 297 297 294 291 291 290 289 289 287 285 285 285 285 285 283 281 278 275 272 270 269 270 269 266 263 261 259 257 255 253 251
299 298 299 302 303 304 304 305 307 308 310 311 312 313 314 314 314 316 318 317 315 315 317 319 319 318 317 317 320 328 335 338 337 334 331 329 328 329 328 325 323 318 311 309 310 312 313 315 315 310 304 303 303 302 301 300 298 297 296 295 293 290 288 287 286 285 284 283 282 281 280 278 274 271 269 269 269 267 264 260 258 259 257 255 253
297 297 300 302 303 303 304 305 306 308 309 310 311 313 314 314 314 317 318 315 313 315 318 320 320 319 319 321 327 332 335 335 332 330 329 329 330 332 330 325 322 319 314 312 313 313 313 313 311 309 308 308 307 305 303 303 302 300 298 296 294 292 290 288 287 285 284 283 283 282 281 280 279 275 270 267 266 266 263 258 255 256 255 253 251
295 297 300 302 302 302 303 304 306 308 308 309 311 312 314 314 314 316 317 314 314 316 319 321 322 322 323 326 331 331 329 327 325 326 328 329 330 328 325 321 320 317 314 313 314 314 313 313 312 311 309 308 306 304 305 307 307 305 305 304 303 302 300 297 293 290 287 286 285 283 282 282 282 280 274 267 263 263 264 257 252 251 253 251 248
294 298 301 302 301 302 303 304 306 308 308 309 310 312 314 314 313 315 316 315 315 319 323 325 326 327 327 328 328 325 321 320 324 326 326 324 321 319 316 315 315 313 312 312 313 312 312 311 310 309 308 308 309 309 310 311 310 308 308 308 306 304 301 298 294 290 287 285 284 284 283 282 281 280 278 271 262 261 265 260 250 247 250 248 244
295 299 301 301 301 301 302 304 306 307 307 308 309 311 314 314 313 314 316 317 319 323 327 329 331 330 327 323 320 316 313 318 323 323 319 315 314 312 311 310 310 309 307 307 307 307 306 305 304 304 305 307 308 308 307 307 306 305 305 304 303 301 298 295 292 288 287 286 284 283 283 282 280 279 277 272 263 260 264 262 249 243 245 244 240
296 300 300 300 300 300 302 303 305 306 306 307 307 309 311 312 313 313 315 318 321 325 327 328 329 329 325 320 317 313 313 318 321 318 314 313 313 312 310 309 307 303 300 301 301 300 298 297 297 298 300 302 303 304 304 305 305 305 306 306 305 303 299 295 291 289 288 286 284 283 281 280 280 278 276 273 266 261 265 263 249 239 239 239 237
297 299 299 298 298 300 301 303 304 305 305 306 308 309 309 309 310 311 314 318 323 325 324 325 329 331 327 322 323 324 324 324 322 319 318 318 317 315 312 308 304 300 300 300 299 295 293 294 296 297 298 300 302 304 307 309 311 312 313 312 310 307 303 298 295 292 290 286 284 282 280 278 278 278 278 276 268 265 268 262 245 235 235 235 234
297 297 297 296 297 298 300 301 303 303 304 306 307 309 310 311 311 311 312 317 323 327 327 327 331 335 334 332 332 334 334 332 331 329 326 322 318 314 310 306 304 304 305 304 300 298 298 299 300 301 303 306 308 312 316 319 320 320 319 317 317 315 311 306 303 298 293 289 286 283 281 279 278 278 281 278 269 270 270 255 235 229 232 233 233
296 296 295 295 296 297 298 299 301 302 303 305 306 308 310 312 314 314 312 312 316 321 327 334 339 341 340 339 340 339 337 338 340 337 330 325 321 318 316 315 314 312 311 310 307 306 307 307 307 310 313 314 316 321 325 327 328 327 326 324 324 323 319 315 311 304 297 293 288 283 281 279 278 280 282 277 272 276 274 253 234 229 230 230 231
294 294 294 294 294 295 296 298 299 300 302 303 305 307 309 312 315 318 319 319 316 313 317 331 344 347 342 341 343 342 341 345 346 341 335 332 330 327 325 324 320 314 312 314 313 312 312 312 314 316 317 317 321 327 330 332 334 336 336 333 328 324 322 318 313 307 302 297 292 287 283 283 282 284 285 282 282 286 275 249 235 233 231 227 229
292 292 292 293 293 294 295 296 297 299 300 301 304 305 307 311 315 319 323 326 326 323 320 324 336 343 342 341 342 342 342 346 348 345 342 341 338 335 333 331 328 323 321 322 321 321 322 323 322 321 321 323 327 331 332 335 338 339 339 337 332 327 324 320 315 311 306 301 296 292 290 289 288 289 290 288 288 290 278 247 231 229 228 226 227
291 290 290 290 290 291 293 294 295 297 298 299 301 303 306 311 316 319 322 324 328 331 331 330 334 337 338 339 340 338 339 345 349 349 350 350 348 346 346 345 344 341 336 333 329 329 332 334 333 330 330 331 332 333 334 336 338 338 338 338 336 332 328 323 319 316 312 307 302 298 295 294 293 293 294 292 287 286 283 264 240 231 229 229 230
288 287 287 287 287 289 290 291 293 294 295 297 299 302 305 310 314 317 319 321 324 329 333 334 335 335 336 340 341 339 342 349 351 350 353 356 356 357 359 359 358 354 349 344 339 335 337 341 341 338 337 336 334 335 336 336 335 334 334 336 337 338 337 332 326 321 316 310 307 304 301 300 300 298 296 294 288 281 279 276 266 255 248 246 243
285 285 285 285 285 287 288 289 290 291 293 295 297 300 304 307 311 314 316 319 323 328 332 334 334 334 337 340 340 341 347 352 349 347 352 358 0 2 3 5 5 3 359 355 348 342 340 342 344 344 343 341 338 337 337 336 334 334 334 334 335 338 340 338 334 329 321 312 307 304 301 300 301 301 298 293 287 283 280 278 274 266 259 255 249
283 283 283 283 285 286 287 288 289 290 291 293 295 298 301 304 308 311 313 316 321 325 330 333 334 335 338 339 340 344 351 355 352 351 355 360 3 4 4 5 7 7 5 2 358 352 347 346 346 348 348 346 343 341 340 339 338 338 336 335 335 337 339 338 335 332 327 319 313 309 305 302 300 298 293 286 281 281 282 281 277 270 261 253 247
280 280 280 281 283 284 285 287 289 289 291 292 293 296 300 302 304 307 310 314 319 324 328 331 333 336 340 343 345 349 352 353 354 355 357 0 3 5 6 6 7 7 7 5 4 1 357 355 354 353 353 352 350 347 345 344 343 342 340 339 337 337 338 337 334 330 326 322 318 314 310 307 303 296 287 283 281 280 279 277 276 272 265 256 249
277 277 277 277 279 281 283 285 287 288 290 291 292 295 298 300 302 305 308 311 316 321 326 329 331 336 341 345 349 350 348 349 353 357 360 2 4 6 7 7 7 6 6 6 5 4 2 1 1 360 360 0 358 354 350 347 346 344 343 342 340 339 339 338 335 332 328 324 321 320 315 309 305 300 294 291 289 286 280 276 274 271 263 256 249
274 274 274 274 276 278 280 282 285 287 288 291 292 294 296 298 300 303 306 309 313 316 320 325 329 334 337 341 345 345 345 348 354 358 1 4 6 7 7 8 7 7 7 6 5 5 4 4 4 4 5 6 5 3 359 354 350 347 346 344 343 341 340 339 337 334 332 329 328 328 326 320 312 305 298 292 290 288 283 279 274 267 258 252 246
271 270 270 271 273 276 278 280 282 285 288 291 292 293 294 296 299 302 305 307 310 312 316 321 326 329 332 336 340 342 344 349 353 356 359 3 6 7 8 7 7 8 8 7 7 6 6 6 8 8 9 9 10 10 8 3 357 352 348 346 346 345 344 343 341 340 339 338 337 337 340 340 337 330 318 304 295 290 285 277 268 258 248 242 238
267 266 267 269 272 274 277 279 281 284 288 291 292 292 293 294 297 301 303 305 307 309 313 317 321 324 328 332 335 338 342 347 351 353 355 359 2 5 6 6 6 7 8 8 8 8 7 8 10 11 13 13 13 14 14 11 6 1 355 351 350 351 351 350 350 350 349 347 346 347 350 353 351 347 342 332 318 306 296 281 268 258 249 240 234
264 263 265 268 271 273 276 278 280 283 287 290 292 292 293 294 296 299 301 303 304 306 309 312 315 319 324 328 331 334 339 344 347 349 351 353 356 359 1 3 5 5 6 8 9 9 9 8 8 10 14 16 16 16 16 15 14 11 6 0 358 358 358 357 356 356 355 353 353 355 357 1 1 356 350 342 330 317 309 302 283 268 257 248 241
261 262 264 266 268 271 274 276 278 282 286 289 290 290 291 292 294 297 299 302 303 305 307 307 309 313 319 323 326 330 334 338 341 344 346 347 349 352 355 358 1 3 4 5 7 9 10 10 8 8 10 13 16 17 18 19 18 16 13 10 7 5 4 2 0 0 2 4 5 5 5 6 5 1 357 354 347 335 327 326 326 292 256 246 238
260 261 263 264 267 269 271 273 276 280 283 286 288 288 289 290 292 294 297 300 302 304 305 304 304 307 312 317 320 325 329 333 335 338 340 342 344 346 349 352 354 358 0 2 4 6 8 10 9 8 7 10 13 15 17 19 20 20 18 17 14 12 11 11 11 12 14 14 14 14 14 14 13 10 6 3 0 357 356 357 2 359 239 223 216
258 259 261 263 265 267 268 270 273 276 280 283 285 286 288 289 290 293 295 298 300 302 302 301 302 304 306 310 315 320 324 327 330 332 334 335 338 341 343 346 349 352 354 357 360 2 4 6 8 7 7 7 9 12 14 16 19 20 21 21 20 17 16 18 21 24 26 26 25 24 23 22 22 23 22 20 18 18 18 25 38 62 140 175 185
256 258 260 263 264 265 267 268 270 274 278 280 282 283 286 288 291 293 295 296 298 299 300 300 301 302 302 304 308 313 317 321 324 326 327 330 332 335 337 340 343 345 348 351 354 356 359 1 3 5 6 6 6 8 11 13 15 16 18 21 22 22 22 23 26 29 32 34 33 32 32 34 37 39 38 37 36 38 42 53 68 89 125 152 165
255 257 259 262 263 264 266 268 271 274 276 277 279 282 283 286 289 292 294 296 298 298 299 300 300 300 301 302 305 307 311 314 317 319 322 324 326 328 330 333 336 339 342 345 348 351 353 356 358 360 2 4 4 4 7 11 13 13 14 16 19 22 25 28 30 31 33 35 37 38 40 43 47 50 50 49 49 54 60 67 78 94 113 131 146
254 256 259 261 262 263 266 269 272 275 277 279 282 283 284 286 289 291 293 296 298 298 298 298 298 299 300 301 303 305 307 309 311 313 316 318 320 322 324 326 329 332 334 338 342 345 347 350 353 354 356 359 0 0 2 7 10 10 10 13 16 18 22 28 32 34 35 37 38 40 44 49 53 56 58 57 58 62 67 72 80 90 100 110 120